Flag for Germany Weather past 2 weeks in Neustadt am Rübenberge, Lower Saxony, Germany

Now
57 °F

Cool.


Feels Like: 54 °F
Forecast: 51 / 60 °F
Wind: 14 mph from Southwest

Location: Wunstorf Airport

Current Time: Sep 4, 2015 at 11:21:12 PM

Latest Report: Sep 4, 2015 at 10:20 PM


Visibility: 3 mi

Pressure: 29.83 "Hg

Humidity: 67%

Dew point: 46 °F

Location of Neustadt am RübenbergeLocation

Historic Weather in Neustadt am Rübenberge — Graph

°F

Neustadt am Rübenberge temperature yesterday

Maximum temperature yesterday: 64 °F (at 3:20 PM)
Minimum temperature yesterday: 52 °F (at 2:20 AM)
Average temperature yesterday: 57 °F

Past Weeks' High & Low Weather Summary

 TemperatureHumidityPressure
High91 °F (Aug 31, 5:20 PM)100% (Aug 21, 1:20 AM)30.27 "Hg (Aug 21, 1:20 AM)
Low50 °F (Aug 29, 6:20 AM)32% (Aug 22, 1:20 PM)29.59 "Hg (Aug 24, 6:20 PM)
Average65 °F72%29.95 "Hg
* Reported Aug 20 9:20 PM — Sep 4 9:20 PM, Neustadt am Rübenberge, Weather by CustomWeather, © 2015

Note: Actual official high and low records may vary slightly from our data, if they occured in-between our weather recording intervals... More about our weather records

Advertising

Neustadt am Rübenberge weather history for previous 24 hours

 ConditionsComfort  
Time TempWeatherWind HumidityBarometerVisibility
9:20 PM
Fri, Sep 4
57 °FCool.10 mph67%29.83 "Hg3 mi
8:20 PM59 °FCool.12 mph63%29.83 "Hg3 mi
7:20 PM61 °FCool.14 mph63%29.83 "Hg4 mi
6:20 PM61 °FCool.14 mph63%29.86 "Hg3 mi
5:20 PM63 °FMild.18 mph56%29.86 "Hg3 mi
4:20 PM63 °FMild.16 mph56%29.86 "Hg3 mi
3:20 PM63 °FMild.16 mph56%29.89 "Hg4 mi
2:20 PM63 °FMild.17 mph52%29.89 "Hg4 mi
1:20 PM63 °FMild.17 mph56%29.89 "Hg3 mi
12:20 PM63 °FMild.16 mph56%29.89 "Hg4 mi
11:20 AM61 °FPassing clouds.13 mph59%29.92 "HgN/A
10:20 AM59 °FPassing clouds.16 mph68%29.92 "HgN/A
9:20 AM57 °FPassing clouds.12 mph77%29.92 "HgN/A
8:20 AM54 °FScattered clouds.8 mph88%29.92 "Hg6 mi
7:20 AM52 °FPartly cloudy.10 mph88%29.92 "HgN/A
6:20 AM52 °FCool.6 mph88%29.92 "Hg2 mi
5:20 AM52 °FCool.8 mph88%29.92 "Hg2 mi
4:20 AM52 °FCool.7 mph88%29.92 "Hg3 mi
3:20 AM50 °FCool.7 mph88%29.92 "Hg3 mi
2:20 AM52 °FCool.8 mph82%29.92 "Hg3 mi
1:20 AM52 °FCool.7 mph82%29.95 "Hg3 mi
12:20 AM50 °FCool.7 mph88%29.92 "Hg3 mi
11:20 PM
Thu, Sep 3
52 °FCool.8 mph82%29.92 "Hg3 mi
Weather by CustomWeather, © 2015

See weather overviewHow to use our weather pages